Weather History for CYUS - October, 2013

Change the Weather History Date:

Saturday, October 12, 2013

  Actual Average Record
Temperature  
Mean Temperature 30 °F -  
Max Temperature 32 °F - - ()
Min Temperature 28 °F - - ()
Degree Days  
Heating Degree Days 35    
Moisture  
Dew Point -    
Average Humidity    
Maximum Humidity    
Minimum Humidity    
Precipitation  
Precipitation 0.00 in - - ()
Sea Level Pressure  
Sea Level Pressure 29.64 in    
Wind  
Wind Speed 12 mph ()    
Max Wind Speed 20 mph    
Max Gust Speed -    
Visibility 3.7 miles    
Events Snow    
T = Trace of Precipitation, MM = Missing Value Source: Averaged Metar Reports

Daily Weather History Graph

Daily Weather History Graph

Search for Another Location

Airport or City:

Trip Planner

Search our weather history database for the weather conditions in past years. The results will help you decide how hot, cold, wet, or windy it might be!

Date:

Astronomy

Oct. 12, 2013 Rise Set
Actual Time 8:10 AM CDT 5:47 PM CDT
Civil Twilight 7:11 AM CDT 6:46 PM CDT
Nautical Twilight 6:05 AM CDT 7:52 PM CDT
Astronomical Twilight 4:54 AM CDT 9:02 PM CDT
Moon 4:50 PM CDT (10/12) 11:39 PM CDT (10/12)
Length of Visible Light 11h 34m
Length of Day
9h 37m
First Quarter, 59% of the Moon is Illuminated
Oct 12
First Quarter
Oct 18
Full
Oct 26
Last Quarter
Nov 3
New
Nov 9
First Quarter

Hourly Weather History & Observations

Time (CDT) Temp. Windchill Dew Point Humidity Pressure Visibility Wind Dir Wind Speed Gust Speed Precip Events Conditions
12:00 AM 32.0 °F 22.1 °F - N/A% 29.62 in 9.0 mi South 13.8 mph - N/A   Mostly Cloudy
12:11 AM 32.0 °F 22.5 °F - N/A% 29.61 in 9.0 mi South 12.7 mph - N/A   Scattered Clouds
12:17 AM 32.0 °F 23.0 °F - N/A% 29.60 in 9.0 mi South 11.5 mph - N/A   Mostly Cloudy
12:22 AM 32.0 °F 23.0 °F - N/A% 29.60 in 9.0 mi South 11.5 mph - N/A   Overcast
12:26 AM 32.0 °F 23.0 °F - N/A% 29.60 in 9.0 mi South 11.5 mph - N/A   Overcast
12:27 AM 32.0 °F 23.0 °F - N/A% 29.61 in 9.0 mi South 11.5 mph - N/A   Overcast
12:56 AM 32.0 °F 21.6 °F - N/A% 29.61 in 9.0 mi South 15.0 mph - N/A   Scattered Clouds
12:59 AM 32.0 °F 21.2 °F - N/A% 29.61 in 9.0 mi South 16.1 mph - N/A   Mostly Cloudy
1:00 AM 32 °F - - % 29.62 in 9 mi South 15.0 mph - -  
1:00 AM 32.0 °F 21.2 °F - N/A% 29.62 in 9.0 mi South 16.1 mph - N/A   Mostly Cloudy
1:37 AM 32.0 °F 21.6 °F - N/A% 29.60 in 9.0 mi South 15.0 mph - N/A   Overcast
1:38 AM 32.0 °F 21.2 °F - N/A% 29.60 in 9.0 mi South 16.1 mph - N/A   Overcast
1:39 AM 32.0 °F 21.2 °F - N/A% 29.60 in 9.0 mi South 16.1 mph - N/A   Overcast
2:00 AM 32.0 °F 20.8 °F - N/A% 29.62 in 9.0 mi South 17.3 mph - N/A   Overcast
2:13 AM 32.0 °F 21.2 °F - N/A% 29.60 in 5.0 mi South 16.1 mph - N/A   Overcast
2:27 AM 32.0 °F 22.1 °F - N/A% 29.60 in 7.0 mi South 13.8 mph - N/A   Overcast
2:31 AM 32.0 °F 22.1 °F - N/A% 29.60 in 9.0 mi South 13.8 mph - N/A   Overcast
3:00 AM 32.0 °F 22.1 °F - N/A% 29.62 in 9.0 mi South 13.8 mph - N/A   Overcast
3:02 AM 32.0 °F - - N/A% 29.60 in 9.0 mi North - - N/A   Overcast
3:10 AM 32.0 °F 22.1 °F - N/A% 29.60 in 3.5 mi South 13.8 mph - N/A   Overcast
3:13 AM 32.0 °F 21.6 °F - N/A% 29.60 in 3.0 mi South 15.0 mph - N/A   Overcast
3:18 AM 32.0 °F 22.1 °F - N/A% 29.60 in 2.6 mi South 13.8 mph - N/A Snow Light Snow
3:20 AM 32.0 °F 22.1 °F - N/A% 29.60 in 3.0 mi South 13.8 mph - N/A Snow Light Snow
3:30 AM 32.0 °F 22.1 °F - N/A% 29.60 in 2.2 mi South 13.8 mph - N/A Snow Light Snow
3:35 AM 32.0 °F 22.1 °F - N/A% 29.59 in 1.4 mi South 13.8 mph - N/A Snow Light Snow
3:37 AM 32.0 °F 22.1 °F - N/A% 29.59 in 1.1 mi South 13.8 mph - N/A Snow Light Snow
3:57 AM 32.0 °F 21.6 °F - N/A% 29.59 in 2.5 mi South 15.0 mph - N/A Snow Light Snow
3:59 AM 32.0 °F 21.2 °F - N/A% 29.59 in 3.0 mi South 16.1 mph - N/A Snow Light Snow
4:00 AM 32 °F - - % 29.61 in 3 mi South 16.1 mph - - Snow Light Snow
4:00 AM 32.0 °F 20.8 °F - N/A% 29.61 in 3.5 mi South 17.3 mph - N/A Snow Light Snow
4:06 AM 32.0 °F 21.2 °F - N/A% 29.59 in 4.0 mi South 16.1 mph - N/A Snow Light Snow
4:16 AM 32.0 °F 21.2 °F - N/A% 29.59 in 3.0 mi South 16.1 mph - N/A Snow Light Snow
4:26 AM 32.0 °F 21.6 °F - N/A% 29.59 in 3.0 mi South 15.0 mph - N/A Snow Light Snow
4:30 AM 32.0 °F 21.2 °F - N/A% 29.59 in 4.0 mi South 16.1 mph - N/A Snow Light Snow
4:33 AM 32.0 °F 21.6 °F - N/A% 29.59 in 4.0 mi South 15.0 mph - N/A Snow Light Snow
4:39 AM 32.0 °F 21.6 °F - N/A% 29.59 in 2.8 mi South 15.0 mph - N/A Snow Light Snow
5:00 AM 32.0 °F 21.2 °F - N/A% 29.61 in 2.1 mi South 16.1 mph - N/A Snow Light Snow
5:50 AM 32.0 °F 21.2 °F - N/A% 29.59 in 1.4 mi South 16.1 mph - N/A Snow Light Snow
6:00 AM 32.0 °F 20.8 °F - N/A% 29.60 in 1.2 mi South 17.3 mph - N/A Snow Light Snow
6:11 AM 32.0 °F 20.8 °F - N/A% 29.58 in 1.8 mi South 17.3 mph - N/A Snow Light Snow
6:14 AM 32.0 °F 20.8 °F - N/A% 29.59 in 1.2 mi South 17.3 mph - N/A Snow Light Snow
6:37 AM 32.0 °F 21.2 °F - N/A% 29.58 in 1.5 mi South 16.1 mph - N/A Snow Light Snow
6:40 AM 32.0 °F 21.6 °F - N/A% 29.58 in 1.4 mi South 15.0 mph - N/A Snow Light Snow
6:57 AM 32.0 °F 20.8 °F - N/A% 29.58 in 3.0 mi South 17.3 mph - N/A Snow Light Snow
7:00 AM 32 °F - - % 29.60 in 4 mi South 16.1 mph - -   Overcast
7:00 AM 32.0 °F 20.8 °F - N/A% 29.60 in 4.0 mi South 17.3 mph - N/A Snow Light Snow
7:03 AM 32.0 °F 20.8 °F - N/A% 29.58 in 2.6 mi South 17.3 mph - N/A Snow Light Snow
7:15 AM 32.0 °F 20.5 °F - N/A% 29.58 in 2.0 mi SSW 18.4 mph - N/A Snow Light Snow
7:39 AM 32.0 °F 20.8 °F - N/A% 29.57 in 3.0 mi SSW 17.3 mph - N/A   Overcast
7:40 AM 32.0 °F 20.8 °F - N/A% 29.57 in 7.0 mi SSW 17.3 mph - N/A   Overcast
7:52 AM 32.0 °F 20.8 °F - N/A% 29.57 in 2.8 mi SSW 17.3 mph - N/A   Clear
7:55 AM 32.0 °F 20.5 °F - N/A% 29.57 in 2.0 mi SSW 18.4 mph - N/A   Clear
7:58 AM 32.0 °F 20.5 °F - N/A% 29.57 in 1.4 mi SSW 18.4 mph - N/A   Clear
8:00 AM 32.0 °F 20.5 °F - N/A% 29.59 in 1.2 mi SSW 18.4 mph - N/A   Clear
8:24 AM 32.0 °F 20.1 °F - N/A% 29.58 in 1.1 mi SSW 19.6 mph - N/A Snow Light Snow
9:00 AM 32.0 °F 20.5 °F - N/A% 29.60 in 1.0 mi SSW 18.4 mph - N/A Snow Light Snow
9:02 AM 32.0 °F 20.8 °F - N/A% 29.58 in 1.0 mi SSW 17.3 mph - N/A Snow Light Snow
9:11 AM 32.0 °F 20.5 °F - N/A% 29.59 in 0.6 mi SSW 18.4 mph - N/A Snow Light Snow
9:30 AM 32.0 °F 21.6 °F - N/A% 29.59 in 0.8 mi SSW 15.0 mph - N/A Snow Light Snow
9:46 AM 32.0 °F 21.2 °F - N/A% 29.59 in 1.0 mi SSW 16.1 mph - N/A   Overcast
9:49 AM 32.0 °F 21.2 °F - N/A% 29.59 in 0.6 mi SSW 16.1 mph - N/A   Overcast
9:52 AM 32.0 °F 21.2 °F - N/A% 29.59 in 0.6 mi SSW 16.1 mph - N/A   Overcast
9:58 AM 32.0 °F 21.2 °F - N/A% 29.59 in 0.6 mi SSW 16.1 mph - N/A Snow Light Snow
10:00 AM 32 °F - - % 29.61 in 1 mi SSW 15.0 mph - - Snow Light Snow
10:00 AM 32.0 °F 21.2 °F - N/A% 29.61 in 0.6 mi SSW 16.1 mph - N/A Snow Light Snow
10:10 AM 32.0 °F 21.6 °F - N/A% 29.59 in 0.6 mi SW 15.0 mph - N/A Snow Light Snow
10:29 AM 32.0 °F 21.6 °F - N/A% 29.60 in 0.5 mi SW 15.0 mph - N/A   Overcast
10:34 AM 32.0 °F 21.6 °F - N/A% 29.60 in 0.4 mi SW 15.0 mph - N/A   Overcast
10:43 AM 32.0 °F 21.6 °F - N/A% 29.60 in 0.4 mi SW 15.0 mph - N/A   Clear
10:59 AM 32.0 °F 21.6 °F - N/A% 29.60 in 0.5 mi SW 15.0 mph - N/A   Clear
11:00 AM 32.0 °F 21.6 °F - N/A% 29.62 in 0.5 mi SW 15.0 mph - N/A   Clear
11:23 AM 32.0 °F 21.2 °F - N/A% 29.61 in 0.8 mi SW 16.1 mph - N/A   Overcast
11:25 AM 32.0 °F 22.1 °F - N/A% 29.61 in 0.6 mi SW 13.8 mph - N/A   Overcast
11:26 AM 32.0 °F 22.1 °F - N/A% 29.61 in 0.6 mi SW 13.8 mph - N/A Snow Light Snow
11:47 AM 32.0 °F 21.6 °F - N/A% 29.61 in 0.6 mi SW 15.0 mph - N/A Snow Light Snow
11:51 AM 32.0 °F 22.1 °F - N/A% 29.61 in 0.6 mi SW 13.8 mph - N/A   Overcast
12:00 PM 32.0 °F 22.1 °F - N/A% 29.63 in 0.5 mi SW 13.8 mph - N/A   Overcast
12:07 PM 32.0 °F 21.6 °F - N/A% 29.61 in 0.4 mi SW 15.0 mph - N/A   Overcast
12:14 PM 32.0 °F 21.2 °F - N/A% 29.62 in 0.4 mi SW 16.1 mph - N/A   Overcast
12:49 PM 32.0 °F 21.6 °F - N/A% 29.62 in 0.2 mi SW 15.0 mph - N/A Snow Light Snow
12:50 PM 32.0 °F 21.2 °F - N/A% 29.62 in 0.2 mi SW 16.1 mph - N/A   Clear
12:51 PM 32.0 °F 21.2 °F - N/A% 29.62 in 0.2 mi SW 16.1 mph - N/A Snow Light Snow
12:56 PM 32.0 °F 22.5 °F - N/A% 29.62 in 0.1 mi SW 12.7 mph - N/A Snow Light Snow
1:00 PM 32 °F - - % 29.64 in 0 mi SW 13.8 mph - -  
1:00 PM 32.0 °F 22.5 °F - N/A% 29.64 in 0.1 mi SW 12.7 mph - N/A Snow Light Snow
1:12 PM 32.0 °F 23.6 °F - N/A% 29.63 in 0.5 mi WSW 10.4 mph - N/A Snow Light Snow
1:21 PM 32.0 °F 23.0 °F - N/A% 29.63 in 1.0 mi West 11.5 mph - N/A Snow Light Snow
1:33 PM 32.0 °F 24.8 °F - N/A% 29.63 in 2.4 mi West 8.1 mph - N/A Snow Light Snow
1:48 PM 32.0 °F 24.8 °F - N/A% 29.63 in 5.0 mi WSW 8.1 mph - N/A Snow Light Snow
1:49 PM 32.0 °F 24.2 °F - N/A% 29.64 in 5.0 mi WSW 9.2 mph - N/A   Overcast
2:00 PM 32.0 °F 24.2 °F - N/A% 29.66 in 5.0 mi West 9.2 mph - N/A   Overcast
2:05 PM 32.0 °F 24.2 °F - N/A% 29.64 in 3.0 mi WSW 9.2 mph - N/A   Clear
2:21 PM 30.2 °F 21.9 °F - N/A% 29.64 in 1.4 mi WSW 9.2 mph - N/A   Clear
2:38 PM 30.2 °F 21.9 °F - N/A% 29.65 in 0.8 mi WSW 9.2 mph - N/A   Clear
2:39 PM 30.2 °F 21.3 °F - N/A% 29.65 in 0.6 mi West 10.4 mph - N/A   Overcast
2:50 PM 30.2 °F 22.6 °F - N/A% 29.66 in 1.0 mi WSW 8.1 mph - N/A   Clear
2:57 PM 30.2 °F 21.9 °F - N/A% 29.65 in 1.0 mi WSW 9.2 mph - N/A   Overcast
2:59 PM 30.2 °F 21.9 °F - N/A% 29.65 in 0.6 mi WSW 9.2 mph - N/A   Overcast
3:00 PM 30.2 °F 23.4 °F - N/A% 29.67 in 0.6 mi West 6.9 mph - N/A   Overcast
3:10 PM 30.2 °F 22.6 °F - N/A% 29.66 in 0.6 mi WSW 8.1 mph - N/A   Overcast
3:15 PM 30.2 °F 21.9 °F - N/A% 29.66 in 1.0 mi WSW 9.2 mph - N/A   Clear
3:58 PM 30.2 °F 20.8 °F - N/A% 29.67 in 1.5 mi WSW 11.5 mph - N/A   Clear
4:00 PM 30 °F - - % 29.69 in 2 mi WSW 9.2 mph - -  
4:00 PM 30.2 °F 21.3 °F - N/A% 29.69 in 1.6 mi West 10.4 mph - N/A   Clear
4:27 PM 30.2 °F 22.6 °F - N/A% 29.68 in 3.5 mi WSW 8.1 mph - N/A   Overcast
4:37 PM 30.2 °F 21.3 °F - N/A% 29.68 in 4.0 mi WSW 10.4 mph - N/A   Overcast
4:39 PM 30.2 °F 21.9 °F - N/A% 29.68 in 4.0 mi West 9.2 mph - N/A   Overcast
4:44 PM 30.2 °F 22.6 °F - N/A% 29.68 in 4.0 mi WSW 8.1 mph - N/A   Overcast
4:52 PM 30.2 °F 21.9 °F - N/A% 29.68 in 4.0 mi West 9.2 mph - N/A   Overcast
4:53 PM 30.2 °F 21.9 °F - N/A% 29.68 in 4.0 mi West 9.2 mph - N/A   Overcast
4:58 PM 30.2 °F 22.6 °F - N/A% 29.68 in 6.0 mi West 8.1 mph - N/A   Overcast
5:00 PM 30.2 °F 21.9 °F - N/A% 29.70 in 9.0 mi West 9.2 mph - N/A   Overcast
5:17 PM 28.4 °F 20.4 °F - N/A% 29.68 in 9.0 mi West 8.1 mph - N/A   Overcast
5:54 PM 28.4 °F 21.2 °F - N/A% 29.69 in 9.0 mi WSW 6.9 mph - N/A   Overcast
6:00 PM 30.2 °F 23.4 °F - N/A% 29.71 in 9.0 mi WSW 6.9 mph - N/A   Overcast
6:22 PM 30.2 °F 21.9 °F - N/A% 29.70 in 9.0 mi WSW 9.2 mph - N/A   Overcast
6:30 PM 30.2 °F 22.6 °F - N/A% 29.71 in 4.0 mi WSW 8.1 mph - N/A   Overcast
6:40 PM 30.2 °F 23.4 °F - N/A% 29.71 in 7.0 mi WSW 6.9 mph - N/A   Overcast
6:45 PM 30.2 °F 24.3 °F - N/A% 29.71 in 9.0 mi WSW 5.8 mph - N/A   Overcast
6:56 PM 30.2 °F 23.4 °F - N/A% 29.71 in 9.0 mi WSW 6.9 mph - N/A   Overcast
7:00 PM 29 °F - - % 29.73 in 9 mi WSW 6.9 mph - -   Overcast
7:00 PM 30.2 °F 22.6 °F - N/A% 29.73 in 9.0 mi SW 8.1 mph - N/A   Overcast
7:07 PM 30.2 °F 24.3 °F - N/A% 29.71 in 3.0 mi WSW 5.8 mph - N/A   Overcast
7:10 PM 28.4 °F 21.2 °F - N/A% 29.71 in 2.5 mi WSW 6.9 mph - N/A   Overcast
7:24 PM 30.2 °F 24.3 °F - N/A% 29.71 in 4.0 mi WSW 5.8 mph - N/A   Overcast
7:29 PM 28.4 °F 20.4 °F - N/A% 29.71 in 5.0 mi WSW 8.1 mph - N/A   Overcast
7:36 PM 28.4 °F 21.2 °F - N/A% 29.71 in 9.0 mi WSW 6.9 mph - N/A   Overcast
7:37 PM 28.4 °F 21.2 °F - N/A% 29.71 in 9.0 mi WSW 6.9 mph - N/A   Overcast
7:47 PM 28.4 °F 21.2 °F - N/A% 29.71 in 2.6 mi WSW 6.9 mph - N/A   Overcast
7:49 PM 28.4 °F 21.2 °F - N/A% 29.71 in 2.2 mi WSW 6.9 mph - N/A   Overcast
7:55 PM 28.4 °F 22.2 °F - N/A% 29.72 in 1.6 mi WSW 5.8 mph - N/A   Overcast
8:00 PM 28.4 °F 21.2 °F - N/A% 29.73 in 3.0 mi WSW 6.9 mph - N/A   Overcast
8:10 PM 28.4 °F 21.2 °F - N/A% 29.72 in 9.0 mi WSW 6.9 mph - N/A   Overcast
8:44 PM 28.4 °F 19.1 °F - N/A% 29.71 in 3.0 mi West 10.4 mph - N/A Snow Light Snow
8:45 PM 28.4 °F 20.4 °F - N/A% 29.71 in 3.0 mi West 8.1 mph - N/A Snow Light Snow
8:59 PM 28.4 °F 20.4 °F - N/A% 29.72 in 2.8 mi West 8.1 mph - N/A   Overcast
9:00 PM 28.4 °F 20.4 °F - N/A% 29.73 in 2.8 mi West 8.1 mph - N/A   Overcast
9:08 PM 28.4 °F 21.2 °F - N/A% 29.72 in 3.0 mi West 6.9 mph - N/A   Overcast
9:12 PM 28.4 °F 20.4 °F - N/A% 29.72 in 3.0 mi West 8.1 mph - N/A   Overcast
9:17 PM 28.4 °F 19.7 °F - N/A% 29.72 in 3.5 mi West 9.2 mph - N/A   Overcast
9:23 PM 28.4 °F 21.2 °F - N/A% 29.72 in 4.0 mi West 6.9 mph - N/A   Overcast
9:25 PM 28.4 °F 21.2 °F - N/A% 29.72 in 4.0 mi West 6.9 mph - N/A   Overcast
9:33 PM 28.4 °F 20.4 °F - N/A% 29.72 in 5.0 mi West 8.1 mph - N/A   Overcast
10:00 PM 29 °F - - % 29.74 in 7 mi WSW 5.8 mph - -   Overcast
10:00 PM 28.4 °F 23.3 °F - N/A% 29.74 in 8.0 mi WSW 4.6 mph - N/A   Overcast
10:25 PM 28.4 °F 22.2 °F - N/A% 29.73 in 6.0 mi WSW 5.8 mph - N/A   Overcast
10:31 PM 28.4 °F 22.2 °F - N/A% 29.73 in 2.8 mi WSW 5.8 mph - N/A   Overcast
10:33 PM 28.4 °F 22.2 °F - N/A% 29.72 in 2.4 mi WSW 5.8 mph - N/A   Overcast
10:39 PM 28.4 °F 23.3 °F - N/A% 29.73 in 2.6 mi WSW 4.6 mph - N/A   Overcast
10:49 PM 28.4 °F 22.2 °F - N/A% 29.73 in 5.0 mi WSW 5.8 mph - N/A   Overcast
10:56 PM 28.4 °F 22.2 °F - N/A% 29.73 in 6.0 mi WSW 5.8 mph - N/A   Overcast
11:00 PM 28.4 °F 21.2 °F - N/A% 29.75 in 9.0 mi WSW 6.9 mph - N/A   Overcast
11:07 PM 28.4 °F 22.2 °F - N/A% 29.73 in 8.0 mi WSW 5.8 mph - N/A   Overcast